GEFSMW_500_meanwind_000.txt.gz
Wind_Speed
42 40 38 39 40 40 43 46 43 43 48 53 52 51 51 53 56 56 48 45 44 38 29 26 29 30 30 31 34 36 37 38 38 37 35 33 33 32 32 31 30 30 29
42 44 46 43 44 44 44 44 41 40 43 47 48 48 50 53 57 60 61 56 48 45 35 30 30 31 32 32 35 38 39 39 40 39 37 33 32 32 33 33 32 33 33
38 43 42 48 44 38 38 38 40 42 42 41 41 41 43 46 50 53 51 47 48 49 38 33 32 31 31 31 34 37 39 37 37 38 38 34 30 32 31 33 33 35 36
37 42 44 44 46 42 38 39 44 45 48 46 39 40 37 44 44 50 53 53 46 38 32 32 31 31 32 32 33 34 35 35 35 36 37 37 33 32 31 33 35 35 37
44 45 46 47 49 49 50 51 53 50 48 51 45 41 42 46 44 46 39 36 26 20 21 27 29 31 31 31 33 35 36 36 35 35 36 36 34 33 33 32 34 36 38
51 50 48 49 51 54 57 60 61 55 49 55 50 46 41 45 38 30 22 19 19 21 24 28 30 30 31 33 35 36 37 36 34 33 34 34 33 32 32 31 35 37 38
50 51 53 54 55 59 62 62 60 55 51 48 49 48 46 41 33 26 21 19 21 26 28 30 31 32 32 34 35 36 34 32 31 32 32 32 30 29 32 33 35 36 39
46 49 53 56 59 60 60 60 56 52 48 41 44 38 33 39 35 26 21 22 23 26 29 32 33 34 34 35 33 30 29 29 30 29 29 27 28 29 32 36 38 41 42
41 45 49 53 56 57 56 55 54 51 48 40 41 40 32 25 26 23 22 25 25 27 30 31 33 35 35 32 28 26 27 27 26 24 25 26 26 29 31 35 38 38 41
40 43 49 54 57 55 53 54 53 47 42 40 45 46 33 26 21 19 23 26 28 32 36 35 32 30 28 26 25 23 23 23 22 23 26 27 27 26 25 31 32 33 35
38 43 46 49 53 49 40 36 36 39 39 33 39 40 34 28 22 21 25 30 32 32 30 30 28 26 25 26 25 24 23 22 22 23 24 25 25 26 24 23 28 34 35
40 43 42 41 38 32 27 25 24 27 29 30 30 33 30 29 25 26 30 32 28 24 25 27 28 27 27 27 27 26 24 24 23 23 24 24 25 27 28 23 21 25 29
38 43 40 32 21 20 23 23 26 26 27 28 27 27 31 29 26 29 30 31 29 26 27 28 27 27 27 28 28 29 27 26 25 25 28 29 30 30 29 26 22 22 22
34 39 36 27 22 20 21 17 22 23 22 24 28 28 27 25 25 28 29 26 25 26 27 28 28 29 28 29 29 29 27 26 26 26 28 30 32 33 32 30 28 26 25
33 36 32 28 28 23 18 16 19 18 18 21 23 23 20 19 21 24 26 25 25 26 27 28 29 29 28 27 27 27 26 25 26 26 28 30 31 31 33 33 32 30 29
30 30 28 25 27 33 31 21 22 21 22 25 24 25 27 27 25 24 26 25 25 26 27 26 25 26 25 26 24 24 23 25 27 27 28 29 30 32 33 34 34 33 32
24 25 22 22 24 23 27 26 35 38 28 25 26 26 26 25 24 25 26 26 26 27 26 23 22 23 24 24 24 24 24 26 27 26 26 26 27 29 30 32 33 34 33
20 21 20 19 18 15 15 18 22 25 23 23 24 23 23 22 24 26 27 26 24 22 21 21 21 20 20 19 20 22 24 25 26 25 25 25 26 27 28 30 32 33 34
19 17 17 16 14 12 11 8 8 10 14 16 18 21 23 25 25 27 29 27 23 22 24 23 22 19 18 19 20 20 22 22 23 24 24 25 26 27 28 29 31 33 34
19 17 16 14 13 12 13 11 10 11 13 17 21 24 24 24 22 20 22 20 19 19 18 18 17 18 18 18 18 18 18 19 20 20 20 22 24 24 25 25 27 29 32
18 15 13 13 12 12 11 9 7 7 9 11 15 17 17 17 16 16 16 16 15 15 15 15 15 14 14 15 16 16 16 16 17 17 20 22 23 24 25 26 27 28 29
15 13 10 10 8 7 8 9 9 8 6 5 5 4 4 6 9 13 15 15 14 13 13 13 12 13 14 14 13 13 14 16 18 19 21 24 25 27 28 29 31 32 32
16 15 13 12 10 9 9 10 9 8 8 7 7 4 4 3 5 7 8 8 8 10 11 13 16 16 14 12 13 14 16 17 20 23 27 31 32 32 33 33 33 34 34
18 17 17 16 14 13 13 12 11 9 9 9 8 6 2 4 4 5 7 8 9 11 13 15 13 12 13 14 15 16 18 20 24 28 31 32 32 32 32 32 33 33 32
21 20 20 19 18 16 14 14 13 11 10 9 8 7 4 3 4 6 8 10 10 11 11 12 13 14 15 15 16 16 18 23 27 29 29 28 28 28 29 29 29 30 30
24 24 23 22 20 17 15 14 12 12 12 12 11 11 10 9 10 11 12 12 12 13 15 15 15 15 16 17 16 16 20 24 26 27 28 27 26 27 27 25 24 24 26

GEFSMW_500_meanwind_006.txt.gz
Wind_Speed
43 44 45 45 46 47 47 46 47 48 49 51 53 55 58 61 61 61 60 59 59 59 58 54 50 49 48 44 41 40 39 37 36 37 37 35 33 31 31 31 30 30 29
40 41 41 41 42 43 44 45 46 48 50 51 53 56 59 62 63 63 62 60 60 61 60 59 55 54 53 49 46 42 40 38 38 38 38 35 34 34 32 32 32 32 31
37 38 39 40 41 43 44 45 46 47 48 49 50 52 53 56 62 65 63 59 56 55 53 51 52 55 55 53 50 47 43 42 41 41 41 39 35 33 32 33 34 33 32
41 41 41 41 42 42 42 43 45 46 47 48 49 51 51 49 50 54 55 53 52 51 47 43 46 51 52 53 53 51 48 47 46 45 46 45 40 34 30 31 34 34 31
39 38 38 38 38 38 38 39 40 41 43 44 46 48 49 49 50 50 50 51 49 46 44 39 40 47 50 51 53 52 51 51 50 48 46 43 40 35 30 28 29 32 31
31 31 31 31 31 33 34 36 37 38 41 43 45 47 49 50 49 48 46 46 44 41 39 36 36 43 48 49 49 49 49 48 47 44 41 40 37 32 28 26 27 29 31
27 28 29 30 31 33 35 36 38 39 41 43 45 48 50 51 51 48 44 42 39 37 35 34 34 38 40 40 42 41 40 39 39 38 37 36 32 29 28 27 26 28 30
28 29 29 30 32 33 35 37 38 40 43 46 48 47 48 49 49 47 41 37 34 32 31 32 33 33 33 34 36 36 37 37 37 36 35 33 30 28 28 27 28 29 30
31 31 31 31 32 33 36 38 39 42 45 47 46 44 43 44 43 40 36 32 30 28 29 31 32 31 31 31 32 34 36 37 36 35 33 30 29 28 29 29 30 31 31
33 34 33 32 33 34 36 38 41 44 46 44 40 38 37 37 36 34 33 31 28 25 25 27 27 26 26 28 30 31 32 33 32 30 28 27 27 27 27 29 30 30 31
34 35 35 35 35 35 36 38 40 43 42 37 34 32 32 32 32 32 33 32 28 26 25 25 24 24 27 30 32 32 30 28 27 27 28 29 29 28 29 30 31 31 31
35 35 35 35 36 35 34 35 38 38 34 29 27 28 30 32 33 32 30 29 29 28 27 27 26 27 29 30 30 29 27 26 27 28 29 29 29 30 32 33 34 35 35
34 35 35 35 34 32 30 32 34 32 30 25 22 22 24 24 26 29 29 28 29 30 29 29 28 27 25 24 24 25 26 26 27 28 29 30 31 32 33 34 36 38 40
34 34 34 33 31 29 27 28 29 30 29 27 26 22 21 20 21 22 26 29 30 30 27 26 25 25 25 24 23 24 25 26 27 29 30 31 32 33 34 35 37 39 40
31 32 30 29 27 25 24 24 25 26 25 23 22 20 18 16 13 14 17 20 22 21 20 20 21 22 23 23 23 24 25 27 29 30 31 31 32 33 34 35 36 37 38
29 29 27 25 23 21 21 21 22 23 21 18 19 19 18 16 13 11 10 12 14 15 17 18 19 20 21 21 22 23 24 26 27 29 30 31 32 33 33 34 34 34 35
27 26 24 22 21 19 18 18 19 19 17 16 16 18 19 17 15 15 15 15 16 17 18 19 20 20 20 21 21 21 22 23 24 26 29 30 31 31 32 32 32 33 34
27 24 23 21 20 18 17 17 17 16 14 13 13 15 16 17 17 16 17 17 18 19 20 19 19 19 20 19 19 19 19 20 21 23 25 27 28 30 30 30 31 32 33
25 23 22 21 19 18 16 15 15 13 12 11 10 11 12 14 15 16 18 20 20 20 20 20 19 19 19 18 17 17 18 19 20 22 23 25 26 27 27 28 29 31 32
24 22 22 21 18 16 15 13 11 9 8 9 9 10 11 13 15 17 19 21 22 21 20 20 19 17 15 14 13 13 15 17 18 20 21 21 21 22 23 24 26 28 30
23 21 21 21 18 15 14 11 8 7 7 7 8 10 11 13 14 16 18 19 19 19 18 15 13 12 12 12 12 14 16 17 16 15 14 15 17 19 22 26 29 31 33
24 22 23 22 20 18 16 14 12 10 9 8 8 9 10 10 11 12 12 13 13 13 12 10 10 11 12 12 14 15 15 13 12 12 14 16 19 22 25 28 31 32 33
27 23 25 25 23 21 20 18 15 13 12 11 10 10 9 7 6 6 6 6 7 8 9 10 10 12 13 13 13 12 12 12 13 15 17 19 21 23 23 24 26 27 28
29 26 25 28 27 25 24 22 19 16 14 13 11 9 8 8 7 6 6 5 6 6 8 9 11 12 12 11 11 12 13 14 15 16 17 19 20 21 21 23 24 24 23
31 28 26 28 29 28 27 26 23 20 18 16 14 12 9 8 8 8 7 7 7 8 9 10 12 13 13 14 14 13 13 13 13 14 17 19 20 21 22 23 23 22 21
33 31 30 29 30 30 29 28 26 23 21 19 18 17 15 12 11 10 10 10 10 10 11 11 12 13 13 13 13 13 13 13 13 15 17 18 19 22 24 24 23 22 21

GEFSMW_500_meanwind_012.txt.gz
Wind_Speed
44 43 42 41 41 41 41 41 42 42 41 41 41 42 42 43 44 44 45 46 47 48 49 50 51 52 53 52 53 52 51 52 53 52 49 46 43 41 39 37 36 35 34
40 40 39 39 39 39 39 39 41 42 42 43 44 44 45 45 45 47 47 48 49 50 50 51 51 51 50 50 49 50 51 51 53 53 50 47 43 40 38 37 37 36 35
39 39 39 40 41 42 42 43 44 45 46 47 47 48 48 48 48 48 49 49 50 51 51 51 51 51 50 48 47 48 48 49 49 50 49 46 44 42 39 38 38 37 36
37 38 38 39 40 41 42 43 44 44 46 47 48 48 48 48 48 49 49 49 49 50 51 52 53 52 51 49 47 47 46 45 44 44 44 44 44 43 40 39 39 39 37
35 35 36 36 37 38 38 39 39 39 40 42 43 44 45 45 45 46 46 47 48 49 49 50 52 53 52 50 48 46 45 43 41 39 39 41 43 44 43 41 40 39 39
34 33 33 34 34 35 35 35 35 35 36 38 40 41 42 43 44 44 45 47 48 49 48 49 51 52 52 50 48 46 44 41 38 36 37 39 42 44 45 45 41 39 39
35 35 35 34 35 36 36 36 37 37 38 39 41 42 43 44 45 47 48 49 50 50 49 49 50 51 50 48 46 43 41 38 36 36 37 39 40 43 46 45 41 37 35
39 40 39 39 38 38 39 39 39 40 40 41 42 44 46 47 48 49 50 52 52 51 50 49 48 48 46 44 42 41 37 35 36 37 37 39 42 42 41 38 34 31 31
42 43 44 44 42 41 41 41 41 41 42 43 44 46 47 48 49 50 52 52 52 51 48 46 44 42 40 37 36 36 33 33 35 35 35 37 37 36 32 29 28 28 29
42 44 45 45 45 44 44 44 43 43 44 45 46 47 48 48 49 49 50 50 48 45 42 39 37 36 33 31 32 31 30 30 30 30 30 30 29 26 25 25 27 28 30
39 43 44 44 44 44 45 46 45 44 45 46 47 47 47 47 47 47 46 44 41 38 35 33 32 32 31 30 30 29 28 28 26 24 23 22 21 21 23 26 27 29 30
38 41 42 43 42 41 41 42 43 43 43 44 44 44 43 43 42 41 39 36 34 32 30 29 29 29 29 30 29 29 27 26 24 23 21 21 22 23 25 26 28 29 30
39 40 41 41 40 40 39 39 39 39 39 39 39 38 37 36 35 35 32 30 28 27 27 29 28 27 28 28 27 28 27 25 24 23 23 23 24 24 25 27 28 29 29
39 40 40 40 39 38 38 37 36 36 35 34 33 33 32 31 30 28 26 23 22 22 24 25 26 26 27 27 26 26 25 24 23 23 23 23 23 24 26 26 27 28 29
40 40 40 40 39 39 38 37 35 34 32 30 29 29 29 27 25 23 21 18 15 15 18 20 21 23 25 25 24 24 24 23 22 22 21 21 22 23 24 25 26 27 29
40 40 40 40 39 39 39 37 34 32 30 28 27 27 26 24 21 19 17 15 11 7 8 9 11 13 15 17 19 20 21 22 22 21 20 20 20 21 22 23 25 27 28
40 39 39 38 39 39 38 36 33 31 29 27 26 25 23 20 17 16 14 12 9 7 5 4 6 8 10 12 13 15 17 18 19 19 19 20 20 21 22 23 25 26 28
42 39 38 38 39 39 38 35 32 30 28 26 25 22 19 17 15 14 11 10 8 7 6 6 7 9 10 11 12 13 14 15 16 17 18 18 18 18 20 22 23 24 25
44 42 40 38 38 38 38 36 30 29 27 25 23 20 16 14 13 12 11 10 9 9 9 9 9 10 10 11 12 13 14 15 15 16 16 16 16 17 17 17 18 18 19
44 44 42 39 37 37 37 35 30 28 26 23 20 17 15 13 12 12 11 11 11 11 11 11 11 12 12 12 12 12 12 12 13 13 14 14 13 13 12 12 14 16 19
46 46 44 40 37 37 36 33 29 27 26 22 19 17 15 14 12 12 12 12 12 11 10 9 9 10 10 10 10 10 10 10 10 11 11 10 9 10 11 13 16 19 22
48 46 43 41 37 36 36 32 29 28 26 24 21 18 16 14 13 13 12 12 10 9 8 7 6 6 6 6 7 7 8 9 9 9 9 8 9 11 13 15 18 21 24
48 45 43 41 38 38 36 32 29 28 28 27 24 21 19 16 14 13 11 11 10 8 7 6 4 4 4 4 5 6 8 9 9 9 9 10 12 14 15 17 20 23 26
50 46 43 42 41 38 35 32 30 29 30 31 28 25 22 19 16 14 12 11 10 8 7 6 6 5 5 6 6 7 8 8 9 9 10 12 13 14 15 18 20 23 26
52 46 44 44 44 41 34 32 32 30 31 33 32 29 25 22 19 16 15 13 12 10 9 8 7 7 7 8 9 9 10 10 10 11 12 12 13 13 15 17 19 22 24
57 50 46 45 45 44 39 35 33 33 31 34 35 32 28 25 22 19 16 15 14 12 11 10 9 9 10 10 10 11 12 12 12 13 13 13 13 14 15 16 18 20 23

GEFSMW_500_meanwind_018.txt.gz
Wind_Speed
32 31 31 31 32 34 36 38 38 39 40 40 39 39 38 38 38 38 39 40 41 42 43 42 43 43 43 42 42 41 40 40 41 42 41 40 39 38 37 38 39 40 40
29 29 30 32 32 33 35 36 36 38 39 40 40 40 39 38 38 39 39 40 41 42 42 42 41 41 41 41 40 40 41 40 41 42 42 40 39 39 39 39 41 40 39
27 29 32 32 33 33 33 33 34 35 36 37 38 39 38 37 36 36 36 37 38 38 38 39 39 38 39 38 38 39 39 39 39 41 42 42 40 39 38 39 40 39 38
26 29 31 32 32 32 32 33 34 35 37 37 38 38 38 38 37 36 35 35 36 36 37 38 38 38 39 40 39 40 40 41 40 40 42 43 42 41 38 37 39 39 37
24 27 29 31 31 32 33 34 36 38 39 40 39 39 40 40 40 39 38 37 37 37 38 39 40 41 41 42 43 43 43 43 42 42 42 43 43 42 40 37 37 37 35
25 27 29 31 32 33 34 35 37 39 41 42 42 42 42 42 42 41 40 39 39 39 39 40 40 42 43 44 45 45 46 45 45 44 44 44 43 41 40 37 36 36 35
26 27 28 31 32 33 33 35 37 39 40 41 42 43 44 44 44 43 43 42 41 41 41 41 42 43 44 45 46 47 47 46 46 46 45 44 42 40 38 36 34 34 34
28 29 31 32 34 34 35 36 37 38 39 40 41 41 42 43 44 45 45 45 44 44 44 44 45 45 45 46 46 46 46 46 46 46 45 43 40 37 35 34 33 33 32
30 31 33 34 35 36 37 38 39 40 41 41 40 40 40 40 41 43 45 46 46 46 46 46 46 46 45 45 44 44 43 43 43 42 41 38 34 32 31 31 32 32 31
32 33 34 35 36 37 37 39 40 40 41 42 41 40 39 39 39 40 41 43 44 45 45 45 44 43 42 41 40 38 37 36 36 34 32 30 29 29 28 29 29 29 28
34 35 36 36 36 36 37 38 39 40 41 42 42 41 39 38 37 37 38 39 39 40 40 40 39 39 37 35 32 30 29 29 28 28 27 25 25 25 26 26 26 25 25
37 38 39 40 39 38 38 38 39 39 40 41 40 40 39 37 36 35 35 35 35 35 35 35 34 33 31 28 26 24 25 25 26 25 25 24 24 24 23 21 20 19 18
40 41 42 43 42 41 40 39 39 39 39 40 40 39 38 35 34 33 32 32 31 31 31 30 29 27 24 23 22 24 26 25 23 23 22 21 20 19 17 15 13 13 12
43 44 44 45 45 45 43 41 40 39 39 39 38 38 36 34 32 31 30 29 28 27 26 24 23 21 20 20 20 23 25 23 22 22 20 18 16 14 13 11 11 11 11
45 46 47 48 48 48 46 43 40 39 38 37 37 36 35 32 31 29 28 26 24 23 22 21 19 17 15 17 18 20 22 22 22 20 17 15 12 10 9 9 10 10 11
49 49 50 50 50 49 48 46 42 39 38 37 36 35 33 31 29 28 26 24 22 20 19 17 15 14 14 16 17 18 19 19 19 16 14 12 10 9 8 9 10 11 12
54 54 53 52 51 50 49 47 45 41 39 37 36 34 32 29 28 27 24 22 20 18 16 14 12 10 10 13 13 14 15 15 13 12 10 9 9 9 9 10 11 12 13
60 59 59 58 56 54 52 49 47 44 41 39 36 34 32 29 27 25 23 20 17 16 15 13 11 10 8 8 9 9 9 9 9 8 8 8 8 8 9 10 10 11 11
66 66 65 64 62 60 57 54 50 47 44 41 38 36 32 29 26 24 22 19 16 15 14 14 12 11 10 9 8 8 7 7 7 7 6 7 7 8 8 8 9 8 8
70 71 70 69 67 65 62 60 55 51 47 43 40 37 33 30 26 24 21 19 16 14 14 13 13 12 10 9 8 7 8 7 7 6 6 7 7 7 7 7 6 6 7
76 76 76 75 73 71 68 64 59 54 50 46 42 38 35 32 27 24 22 20 17 15 13 13 12 11 10 9 8 8 9 8 7 7 6 6 6 6 6 6 6 6 8
77 76 74 72 72 71 69 65 60 56 52 49 44 39 36 33 29 26 24 21 18 15 14 13 11 10 9 8 8 8 8 7 8 7 7 7 6 6 6 6 7 7 9
67 62 60 59 58 58 59 58 56 54 52 51 47 41 37 34 31 28 25 22 19 16 14 12 11 10 9 9 9 9 8 8 8 8 7 7 7 7 7 7 8 9 10
50 49 48 48 46 46 47 48 50 52 52 50 46 43 39 36 33 31 28 24 20 17 15 14 13 12 11 10 10 10 9 8 8 8 7 7 8 8 8 9 9 9 10
43 43 44 44 42 41 39 39 44 46 50 48 45 44 41 37 35 34 30 25 22 19 18 17 15 14 13 12 11 11 10 9 9 8 8 8 9 9 9 9 8 8 10
42 44 44 44 42 40 37 35 38 42 45 46 45 44 42 39 37 36 33 28 24 21 20 19 18 16 14 13 12 12 11 10 10 9 9 9 9 9 9 8 8 9 10

GEFSMW_500_meanwind_024.txt.gz
Wind_Speed
30 32 34 35 36 36 36 36 35 34 34 34 35 35 36 36 37 37 38 38 39 40 41 42 42 43 43 43 43 43 43 42 41 42 39 37 36 34 33 34 34 34 34
33 35 35 35 35 35 35 34 33 32 34 35 35 36 36 37 38 39 39 39 39 39 40 41 41 41 40 40 40 40 40 39 39 40 38 36 34 33 34 34 34 34 34
36 36 34 32 31 32 33 32 32 33 34 34 34 34 35 36 37 38 39 40 40 40 40 40 40 40 39 38 37 37 37 36 36 37 37 36 33 33 33 34 34 34 34
34 32 30 28 29 30 31 31 32 32 31 31 31 31 32 33 35 37 38 39 40 41 41 41 41 41 41 40 38 37 36 35 34 35 36 37 35 34 33 34 35 36 36
27 25 24 25 27 28 29 30 30 29 28 26 26 27 29 31 33 35 37 38 39 40 40 41 42 42 42 42 41 39 38 37 36 36 37 37 37 36 36 34 35 37 37
22 22 23 24 26 27 28 28 27 26 24 24 24 26 28 30 32 34 35 36 38 38 39 40 41 42 43 43 43 42 41 40 39 38 38 39 38 38 38 38 36 37 37
22 22 23 23 24 25 26 25 25 25 25 26 27 29 30 32 32 34 35 36 36 37 38 38 39 41 42 43 44 43 42 41 41 40 40 40 40 40 40 39 38 38 38
22 22 23 23 24 25 25 26 27 29 30 31 32 33 34 35 35 35 36 37 37 37 37 37 37 38 40 41 43 43 43 42 42 42 42 41 41 40 40 39 39 38 37
21 22 24 25 27 28 29 30 31 33 34 36 36 37 37 38 37 37 37 38 38 38 37 36 36 36 37 38 39 40 41 41 41 41 41 41 41 40 39 38 38 36 35
25 26 28 29 31 33 34 35 36 37 38 39 39 39 39 39 39 38 38 39 39 39 37 36 35 34 34 34 35 36 37 38 38 39 39 39 38 37 36 35 33 32 31
30 31 33 34 36 38 39 40 40 40 40 41 40 40 41 41 40 40 39 39 39 39 37 36 34 32 32 31 31 32 33 34 35 35 35 34 33 31 29 27 26 26 26
35 36 38 40 42 43 44 45 45 45 45 45 44 43 42 42 41 40 39 39 39 38 37 36 34 32 30 29 28 28 28 29 29 30 30 29 28 26 25 24 24 25 25
41 42 44 46 48 49 50 51 51 50 50 49 47 45 44 43 42 41 40 39 39 38 37 35 34 31 29 27 25 24 25 25 24 25 25 24 23 23 22 23 25 25 24
47 49 51 53 54 55 55 56 56 55 54 53 51 49 47 45 44 42 41 40 39 38 36 35 33 30 28 26 24 22 21 21 22 22 22 22 23 22 23 24 24 24 23
52 55 57 59 60 60 60 61 60 59 58 57 56 54 52 49 47 45 42 41 39 37 35 34 31 28 26 24 21 20 19 19 20 21 22 22 23 21 21 22 22 22 21
57 60 62 63 64 64 65 65 64 63 62 61 61 60 57 54 50 47 44 42 40 37 34 32 29 26 24 22 20 19 17 16 17 19 21 22 22 21 21 21 21 21 20
63 64 66 66 68 69 70 70 69 69 69 68 67 65 62 59 55 50 47 43 40 36 33 31 28 25 22 21 18 16 15 15 15 16 18 21 21 21 21 19 19 18 16
68 70 72 73 75 76 77 76 76 76 75 74 72 70 67 63 59 53 48 44 40 36 32 30 27 24 21 20 18 15 13 12 12 13 16 18 19 20 20 18 17 15 13
75 77 79 80 81 81 82 82 81 79 78 76 73 71 68 64 60 55 49 45 41 37 32 29 26 23 20 19 17 14 12 10 10 12 13 14 15 17 17 16 14 12 11
81 82 83 83 83 82 81 79 76 73 70 66 63 60 59 58 55 53 50 46 42 38 34 29 26 23 20 18 16 14 12 10 10 11 12 12 13 14 14 13 12 11 10
79 78 76 74 72 70 67 64 60 56 53 50 48 46 46 48 49 49 49 46 43 39 35 30 27 23 20 17 15 13 12 11 11 11 12 13 13 13 13 13 12 11 11
65 62 60 57 54 52 50 46 43 40 39 38 38 39 40 41 42 45 48 47 43 40 35 31 28 24 20 17 15 14 13 12 12 12 13 14 14 14 13 13 12 11 10
51 48 46 43 41 41 40 38 37 37 37 36 36 37 38 37 37 42 46 47 44 40 36 32 29 25 22 19 17 15 14 13 13 14 14 14 14 13 13 12 11 10 9
43 42 42 41 40 40 41 41 40 40 40 38 36 36 34 33 34 41 46 46 44 41 37 33 29 26 22 19 18 17 17 16 16 15 15 14 14 13 13 12 11 10 9
43 43 43 43 42 42 42 43 43 43 41 38 36 35 33 31 32 39 45 46 43 41 37 33 30 26 23 21 20 20 19 19 18 16 15 15 14 14 13 12 11 9 9
45 46 46 46 47 47 46 45 44 43 41 38 35 32 30 29 30 36 41 44 42 40 38 35 32 29 27 25 23 22 21 20 18 17 16 15 14 13 12 11 10 9 9

GEFSMW_500_meanwind_030.txt.gz
Wind_Speed
34 35 35 35 36 37 38 38 37 35 33 30 27 26 24 22 20 18 18 18 19 20 22 24 27 29 32 34 36 38 40 41 42 42 41 40 39 38 36 35 35 34 33
33 34 34 36 37 38 38 38 36 35 32 28 27 25 22 19 17 17 16 16 17 18 19 22 25 27 30 32 35 38 39 40 42 43 42 40 38 37 35 36 35 35 34
32 34 35 37 38 38 38 37 35 33 30 28 26 24 21 19 18 18 19 19 19 20 21 23 25 27 29 31 33 36 38 40 41 43 43 40 38 37 36 35 35 34 34
32 34 36 38 38 37 36 36 34 33 30 28 26 24 22 22 22 22 23 23 23 23 23 24 26 28 29 31 32 34 36 38 40 42 43 42 40 39 37 35 34 35 35
31 32 34 34 34 35 34 34 34 33 31 28 26 26 25 26 26 26 27 27 26 26 26 26 27 28 30 31 32 33 35 36 38 40 42 43 42 41 39 37 36 36 36
26 28 30 31 33 34 35 36 35 34 32 29 29 29 30 30 30 30 29 29 28 28 27 27 28 29 30 32 33 33 34 35 36 38 40 41 42 41 41 39 38 38 37
25 28 30 32 34 35 36 36 36 36 35 34 34 34 35 34 34 33 32 31 30 29 28 27 28 30 31 33 33 33 34 34 34 35 37 39 40 41 41 40 39 39 38
27 29 31 33 35 37 38 39 39 39 39 39 39 39 38 37 36 34 33 32 31 29 28 27 28 29 31 33 33 34 34 34 33 33 34 35 37 39 40 39 39 39 39
30 32 34 35 37 38 40 41 42 43 43 43 42 41 40 38 37 35 34 33 32 31 29 28 28 29 31 32 34 34 34 34 32 32 32 33 34 36 38 38 38 38 38
36 37 38 40 41 42 44 45 46 47 47 46 45 44 43 41 40 39 37 36 34 33 31 30 29 30 31 32 33 34 34 33 32 31 30 30 31 33 35 37 37 37 38
41 42 44 45 46 47 49 49 50 51 51 51 50 49 48 46 45 43 41 39 37 35 33 32 31 31 31 32 33 34 34 33 31 29 28 28 28 30 32 35 36 37 38
44 46 47 48 49 51 52 53 54 55 56 56 56 55 53 52 50 49 46 44 41 39 36 34 33 32 31 32 33 34 34 33 31 29 27 26 26 28 30 32 34 35 36
45 47 48 50 52 53 55 56 57 59 61 62 62 61 59 58 57 54 51 49 46 43 39 36 34 33 32 32 33 34 34 33 31 28 26 24 24 24 26 28 30 31 32
49 51 52 53 55 57 59 60 62 63 65 66 66 66 65 65 64 62 58 54 51 47 44 40 38 36 34 34 33 34 34 33 31 28 25 23 22 22 23 24 26 28 29
53 55 57 59 61 63 65 66 68 69 70 71 72 72 71 70 69 68 64 60 57 52 48 44 42 40 37 36 35 34 34 33 31 28 25 23 22 21 22 22 23 25 26
60 63 65 67 69 71 73 74 76 77 78 78 79 78 79 77 77 75 70 65 62 58 54 49 45 43 40 38 36 35 34 33 30 27 25 23 22 22 21 22 24 26 26
70 72 75 77 78 79 80 81 81 82 83 84 84 84 83 82 81 79 75 71 66 63 59 53 50 46 43 40 38 36 34 32 30 26 23 22 22 22 22 23 24 26 27
77 79 78 77 74 71 68 67 67 68 69 70 72 74 76 78 78 78 76 73 69 66 61 56 52 50 47 43 40 37 35 32 29 26 22 21 21 21 22 23 24 24 24
77 73 66 60 54 50 47 46 45 45 46 48 49 52 55 58 60 63 66 67 66 64 60 56 52 49 46 44 41 38 35 32 29 25 22 20 19 19 22 23 23 22 22
61 54 48 43 41 39 39 38 37 36 36 35 35 35 35 37 40 43 47 50 53 54 53 51 48 46 43 42 40 37 34 31 28 24 21 19 19 18 19 20 21 20 19
47 43 41 40 40 40 41 41 40 39 38 36 34 31 30 28 28 29 32 36 39 42 45 47 45 44 42 41 40 36 33 31 28 24 22 20 18 18 18 18 17 17 16
42 41 40 40 41 42 43 43 42 42 41 39 37 34 31 29 27 25 25 28 32 35 37 43 45 44 42 41 39 36 33 30 26 24 21 20 19 18 18 17 17 16 15
41 42 43 43 44 45 46 45 44 44 43 42 40 37 34 30 29 27 27 27 29 33 36 40 44 44 41 39 38 36 32 29 26 23 21 20 19 18 18 17 17 16 16
43 45 45 46 47 48 48 48 48 47 45 43 41 38 35 32 30 29 27 27 27 32 36 39 42 42 43 40 38 34 30 28 26 24 23 22 21 20 19 18 17 17 16
46 47 49 50 50 51 51 50 49 48 44 42 40 37 35 33 31 29 28 27 27 30 36 41 41 41 42 40 37 34 30 28 26 25 23 23 22 21 19 18 17 17 16
48 50 52 53 53 52 50 49 48 45 41 38 36 34 32 31 31 30 29 29 28 28 31 37 41 42 41 40 38 35 32 30 27 25 24 23 22 21 20 19 17 16 16